Rechercher aéroport 
image banner adimage banner ad
image banner ad

DAAE - Bejaia / Soummam-Abane Ramdane

Situé à Bejaia, Algeria

ICAO - DAAE, IATA - BJA

Données fournies par Airmate  

Information générale

Coordonnées: N36°42'43" E5°4'10"
Élévation : 19 feet MSL.
 
Voir autres Aéroports à Béjaïa Province

Données opérationnelles

Accessible au public
Heure actuelle UTC:
Heure actuelle locale:
Météo
METAR: DAAE 291000Z 26006KT CAVOK 20/12 Q1026
TAF: TAF DAAE 290500Z 2906/3006 22008KT 9999 FEW020 PROB30 TEMPO 2906/2909 2000 BR BKN008
Voir NOTAMs / SUP AIP / TFR affectant cet aéroport [VIEW]
Fréquences de communication: [VIEW]

Pistes:

Identifiant RWYQFULongueur (ft)Largeur (ft)SurfaceLDA (ft)
0882°7874148ASP
26262°7874148

Coordonnées de l'aéroport

Adresse: Bejaia Algeria

Vue satellite de DAAE